RH
38 45 54 63 69 76 83 85 85 81 76 70 57 43 32 23 21 22 19 17 18 18 17 16 15 18 24 25 21 20 20 21 23 24 24 24 25 23 21 17 11 7
34 39 46 54 59 64 71 77 81 80 77 73 62 46 34 27 24 23 20 17 17 17 17 15 14 17 20 21 19 18 19 19 20 21 20 21 22 21 19 16 10 6
34 37 42 47 51 55 61 67 72 75 76 73 64 51 41 34 28 23 19 18 17 17 16 14 14 16 18 18 16 16 16 17 17 16 17 18 19 19 17 14 9 6
36 38 41 45 48 52 56 59 63 68 71 71 68 61 52 44 36 29 24 21 19 18 16 15 14 14 16 15 14 14 14 15 15 14 14 16 17 16 15 13 9 6
39 40 43 45 47 50 53 54 57 62 65 67 68 66 62 55 46 38 33 28 24 21 18 16 15 14 14 13 12 13 13 13 13 13 13 14 15 14 12 11 9 6
41 42 44 46 47 49 50 51 53 57 61 64 65 65 64 60 52 45 38 32 28 25 22 19 17 16 14 11 11 12 12 12 12 12 11 12 12 12 12 12 9 6
41 43 45 46 47 48 49 50 52 55 58 61 62 63 62 59 54 47 41 35 32 29 25 22 20 18 14 10 10 10 10 10 10 9 10 10 11 11 13 12 8 6
43 45 46 47 48 49 49 50 52 53 56 59 61 62 61 59 55 49 43 38 35 33 30 26 22 19 14 9 8 8 8 8 8 8 9 9 10 13 13 11 7 6
44 45 46 47 49 49 49 50 51 53 54 57 59 60 60 59 56 52 47 41 38 36 35 32 26 22 15 9 7 7 7 8 7 7 8 9 11 15 13 10 8 7
44 44 45 47 48 50 49 49 50 52 54 56 58 59 59 59 57 54 50 45 40 38 37 35 31 25 17 9 7 7 7 8 8 6 7 10 13 14 12 9 8 7
45 45 46 47 48 49 49 49 49 51 53 55 56 58 58 59 57 55 52 48 43 39 38 37 34 30 21 10 6 8 8 8 8 7 8 10 12 12 9 8 8 8
47 46 47 46 47 49 49 50 50 50 53 54 55 57 58 58 58 56 54 51 46 42 39 38 37 34 25 13 7 8 9 9 8 7 9 11 11 9 10 13 14 13
44 45 46 46 47 48 50 51 51 51 53 54 56 57 58 58 58 57 55 52 49 45 41 40 39 36 26 14 8 8 9 9 7 8 11 12 10 12 18 22 21 16
38 40 44 46 47 49 51 52 52 53 54 56 57 58 58 58 58 57 56 54 51 47 44 42 40 37 28 15 8 9 10 8 8 11 13 12 13 20 26 26 22 18
36 38 41 44 47 48 50 51 52 54 55 57 58 58 58 58 58 58 56 54 52 48 46 43 40 37 29 16 9 9 9 9 10 13 13 14 21 28 27 25 26 23
36 37 39 42 45 47 48 50 51 54 55 57 58 58 58 58 58 58 57 55 53 50 47 43 38 37 29 16 9 9 9 10 12 13 15 21 27 29 27 29 30 26
37 36 37 40 43 45 47 49 50 53 54 56 57 58 58 59 59 59 57 56 54 51 47 43 38 36 29 17 10 10 10 12 14 15 21 27 29 28 29 32 31 26
39 38 37 38 40 43 46 48 50 52 54 55 56 57 58 59 59 59 58 57 55 52 48 44 39 37 29 17 10 11 12 13 15 21 27 30 27 26 30 34 32 26
41 40 39 38 39 41 46 50 51 52 52 54 55 57 59 59 59 59 59 57 55 53 50 45 41 37 28 17 12 12 13 15 21 27 30 28 27 33 40 40 35 29
43 43 43 41 40 41 44 49 51 51 52 53 55 57 58 59 60 60 60 58 57 55 52 47 43 38 28 17 13 13 15 19 26 29 30 33 41 48 49 42 34 30
45 45 45 44 43 42 43 46 49 51 52 54 56 58 58 60 60 60 60 59 58 56 54 49 44 37 27 18 14 15 19 25 30 34 40 49 55 53 47 39 34 31
47 48 48 47 46 45 44 45 47 50 52 54 56 57 59 60 61 61 60 60 59 58 56 52 45 37 26 19 17 18 23 31 40 48 56 60 58 50 42 37 34 31
52 53 52 51 51 50 48 47 48 50 52 55 56 57 59 60 60 60 60 61 61 60 58 54 46 36 26 21 20 22 28 41 54 61 62 60 57 50 42 35 32 30
58 59 59 58 57 56 54 53 53 54 55 56 57 58 59 59 59 61 61 61 62 62 60 56 46 35 28 24 23 27 38 52 62 63 60 57 53 47 39 35 33 31
64 64 64 64 62 61 61 61 59 59 60 60 60 61 61 61 61 63 63 63 63 63 63 58 47 36 31 28 28 37 51 61 64 63 61 56 49 42 38 36 34 30
68 68 67 67 67 67 68 69 68 67 66 65 65 65 65 65 64 65 65 65 65 66 65 60 49 39 34 33 37 49 61 65 65 64 60 53 47 42 40 38 34 29
Wind_Speed
35 38 39 40 41 41 43 44 43 42 41 40 39 39 38 38 38 37 38 38 39 39 40 39 38 36 34 32 32 31 30 29 28 27 27 27 27 26 25 25 25 24
36 39 40 40 41 41 42 43 42 42 41 40 40 38 38 38 37 37 38 38 39 39 39 39 38 37 35 34 33 33 31 30 29 28 28 28 28 27 26 26 25 24
38 40 40 41 41 41 41 41 41 40 40 41 40 39 39 39 38 38 38 39 39 39 39 38 38 37 36 35 34 34 33 32 31 29 29 29 28 28 27 26 26 25
40 40 40 41 40 40 40 41 40 40 40 41 41 40 40 40 39 39 40 40 39 39 39 38 38 37 36 36 35 35 35 33 32 31 30 30 29 29 28 27 26 25
40 40 40 40 40 40 40 41 40 40 40 40 40 40 41 40 40 40 41 41 40 40 39 38 38 37 37 37 37 37 36 35 34 32 32 31 30 29 28 27 26 26
41 41 41 40 40 39 40 42 41 40 40 40 40 40 40 40 40 41 41 41 41 41 40 39 39 39 39 39 39 38 37 36 35 33 32 32 31 30 29 28 27 27
42 42 41 41 41 40 41 42 41 41 40 40 40 40 40 40 40 40 40 40 41 41 41 40 40 40 40 40 40 39 38 37 35 34 33 32 31 31 29 29 28 27
41 42 42 42 42 41 41 42 42 42 40 40 40 40 40 40 40 40 40 39 40 40 41 41 41 41 41 41 41 40 38 37 36 34 34 33 32 31 30 29 29 28
41 41 42 42 43 42 42 42 43 42 41 40 40 40 40 40 40 39 39 39 40 40 41 41 41 41 41 42 41 40 38 37 36 35 34 34 33 32 30 30 29 28
40 41 41 42 43 43 43 43 42 42 41 41 40 40 41 41 40 39 39 40 40 41 41 41 41 41 42 42 41 39 38 38 37 36 35 34 33 32 31 30 30 29
38 38 39 40 41 42 43 42 42 42 42 42 41 41 42 41 41 41 40 41 42 42 42 41 41 41 41 41 40 40 39 39 38 37 35 34 33 32 32 31 30 30
35 36 37 38 39 40 41 42 41 42 42 43 42 42 42 42 42 42 42 42 42 42 42 40 40 40 41 41 41 40 40 39 38 37 36 35 34 33 32 31 30 30
31 33 34 34 35 37 39 40 41 42 43 43 43 43 44 43 43 43 43 43 42 41 41 40 39 40 41 41 41 41 40 39 38 37 37 36 35 33 32 31 31 31
28 29 30 31 33 34 37 39 41 43 43 44 44 44 44 44 44 43 43 43 42 41 41 40 39 40 41 42 42 41 40 39 38 38 37 36 35 33 32 32 32 32
27 29 29 30 32 33 35 38 41 42 43 44 45 45 45 44 44 44 44 44 43 42 41 41 41 41 42 42 41 41 39 39 39 38 37 36 34 33 32 32 32 32
29 30 30 31 32 33 35 37 39 41 43 44 45 45 45 44 45 45 45 45 44 43 42 42 41 41 41 40 40 39 39 38 38 38 37 36 34 33 33 32 32 32
30 31 32 32 33 33 34 36 38 40 42 43 44 45 45 45 46 47 46 45 44 44 43 42 41 40 39 39 39 39 39 38 38 38 37 36 34 33 33 32 32 32
30 31 33 34 34 34 34 36 38 39 41 42 44 45 46 47 47 48 47 46 45 44 43 43 41 39 38 38 39 39 39 38 38 38 37 35 35 33 32 32 32 32
28 30 32 34 35 35 35 36 38 39 41 42 43 45 46 47 48 48 47 46 45 45 44 43 41 38 37 38 38 38 38 39 38 38 37 36 34 33 32 32 32 32
28 29 31 32 34 36 36 37 38 40 41 42 43 44 46 48 48 48 47 46 45 44 44 43 41 38 37 38 39 38 38 39 39 37 36 35 34 33 32 32 32 33
31 31 31 32 33 35 37 38 39 40 41 42 43 45 46 47 47 47 46 46 45 44 44 43 40 37 37 38 39 38 37 38 38 38 36 35 34 33 32 32 32 33
35 35 36 36 36 36 37 38 39 39 40 42 43 44 46 46 47 46 46 45 44 44 44 43 40 37 38 39 39 38 36 36 38 38 37 36 35 33 32 32 32 33
38 38 39 40 40 40 39 39 39 39 39 40 43 44 46 46 46 45 45 44 44 44 43 42 40 38 38 38 38 37 36 37 38 38 38 36 34 32 32 32 32 32
38 39 40 42 43 43 42 41 39 39 39 40 42 43 45 45 44 44 44 44 44 43 42 41 39 38 38 38 37 36 36 37 38 38 38 36 33 31 32 32 32 31
36 38 39 41 43 44 43 42 41 40 39 40 41 42 43 44 43 43 44 44 44 43 41 40 38 38 37 37 36 36 36 37 38 38 38 36 32 31 32 32 32 31
35 36 38 39 41 42 42 42 41 41 41 41 41 41 42 43 43 44 44 44 43 41 40 39 38 38 38 37 36 36 36 37 38 38 37 34 32 32 33 32 31 31
Wind_Direction
249 250 249 249 249 249 249 250 249 248 248 248 248 248 248 248 247 247 247 248 248 248 248 247 247 247 247 247 245 244 244 244 245 247 250 253 255 257 260 261 262 263
251 251 252 251 251 251 250 251 250 249 249 248 248 247 247 246 246 246 247 248 249 249 249 248 246 246 246 246 244 243 243 244 245 246 248 251 254 256 257 259 260 261
252 252 253 254 254 254 254 253 252 251 250 249 247 246 246 245 245 245 246 247 248 248 248 247 246 246 245 245 244 243 243 243 244 245 247 249 252 254 255 257 259 261
253 254 255 256 256 257 257 256 254 252 250 249 247 246 246 246 245 244 245 246 247 247 246 246 245 244 244 244 243 243 243 243 243 243 246 248 250 252 254 256 258 260
256 257 256 257 258 258 258 257 255 252 250 249 248 248 247 247 246 245 244 245 245 245 245 244 244 243 242 242 241 242 242 242 243 243 245 248 249 252 254 256 258 259
260 260 259 258 258 258 258 258 257 254 251 250 249 249 248 247 247 246 245 245 245 245 245 244 243 242 241 241 241 242 242 242 243 243 245 247 249 251 253 255 257 258
264 263 262 259 258 257 257 258 257 254 252 251 250 250 249 248 247 247 246 246 245 245 245 244 243 242 241 241 241 242 242 242 243 243 244 246 248 250 252 255 256 257
266 265 263 261 258 257 257 256 256 255 253 251 250 250 249 248 248 247 247 246 246 246 245 244 243 243 242 241 241 242 242 242 243 243 244 246 248 250 252 254 256 258
267 266 265 263 259 256 256 255 255 255 254 252 251 250 250 249 248 248 247 247 246 246 246 244 243 242 241 240 240 241 241 242 243 243 244 246 247 250 252 254 256 258
268 268 267 264 260 257 255 255 255 255 255 254 252 251 250 249 249 248 247 246 246 245 245 244 243 242 241 240 240 240 241 242 242 243 243 245 247 249 251 253 255 258
270 270 268 265 262 259 256 255 256 256 255 254 253 251 250 249 248 248 247 246 245 245 245 244 243 243 242 241 241 241 241 241 242 242 243 244 246 248 250 252 255 258
270 270 268 266 264 261 258 256 256 256 255 254 253 252 251 250 249 248 247 247 246 246 246 245 244 243 242 241 241 241 241 241 241 242 243 244 245 246 248 251 255 257
274 272 271 269 266 263 259 257 256 256 255 254 253 252 252 251 250 249 249 248 248 247 247 246 244 243 241 240 240 240 241 241 240 241 242 243 244 246 248 251 254 256
279 277 274 271 267 263 260 258 256 256 255 254 253 253 252 252 251 251 251 250 249 249 248 246 244 241 240 238 238 239 239 240 240 241 242 243 244 246 248 250 253 255
281 278 274 270 266 262 259 256 255 255 255 254 253 252 253 253 252 252 252 251 250 250 248 246 244 241 239 239 239 240 240 240 241 241 242 243 244 245 247 249 252 255
281 278 274 269 266 262 259 257 255 255 254 253 252 252 252 252 251 251 251 250 250 249 248 246 245 243 241 240 241 242 241 241 242 242 242 243 244 245 247 249 252 255
281 279 276 272 268 264 260 258 256 255 254 253 252 251 250 250 250 249 249 249 249 248 248 247 245 244 242 241 241 242 242 241 242 242 242 243 244 246 248 251 253 256
280 279 278 275 271 267 263 259 257 255 254 253 251 250 249 249 248 248 248 248 248 248 248 247 246 244 242 242 242 242 242 242 242 243 243 244 245 246 248 251 254 256
278 278 277 276 274 270 264 260 257 255 253 252 251 250 249 248 248 248 248 248 248 248 248 248 246 244 242 242 242 243 243 243 242 243 244 244 245 247 249 252 254 257
273 274 276 276 274 271 266 261 258 256 254 253 251 250 249 248 248 248 248 248 248 248 249 248 247 244 241 242 242 241 242 243 243 243 244 245 246 248 250 252 254 257
270 272 273 272 271 269 267 263 260 257 255 253 252 250 249 249 249 249 248 248 248 248 249 248 246 243 240 241 241 241 241 244 246 244 243 245 247 248 250 253 255 257
273 274 274 272 269 268 266 265 262 259 256 254 253 252 251 250 249 249 249 249 248 248 248 248 245 241 238 239 240 240 239 242 246 247 246 246 247 249 250 252 254 257
277 277 277 276 272 270 268 267 265 262 259 256 254 252 251 250 249 249 249 248 247 247 247 247 244 239 238 238 239 239 239 240 243 246 248 248 249 251 252 253 254 256
281 280 280 279 276 274 272 270 267 264 261 258 256 254 253 252 252 251 250 249 248 247 246 246 243 239 238 239 238 237 238 240 242 245 248 250 251 252 254 256 258 259
283 282 281 280 278 277 275 272 270 267 263 260 258 256 255 254 252 251 250 249 248 247 246 245 242 239 237 238 238 237 238 240 242 244 248 251 253 254 254 256 259 261
282 282 281 282 281 280 278 275 271 268 264 261 258 255 254 253 251 250 249 249 248 247 246 243 239 237 236 236 236 236 237 240 242 245 248 252 255 256 256 257 259 260